Location: Fort Worth, Tx
(32.7431°N, 97.3695°W)
Time: 09:38:57
(UTC-04:00)

A-11 Canister half - Pass Details

Date: 21 August 2024
Orbit: 1524 x 1684 km, 47.3° (Epoch: 13 September)

Event Time Altitude Azimuth Distance (km) Brightness Sun altitude
Rises 21:27:16 0° 219° (SW) 4,791 11.9 -4.9°
Reaches altitude 10° 21:30:21 10° 217° (SW) 3,828 11.4 -5.6°
Maximum altitude 21:40:03 69° 136° (SE) 1,748 9.1 -7.5°
Drops below altitude 10° 21:50:04 10° 56° (NE) 3,940 10.8 -9.5°
Sets 21:53:17 0° 54° (NE) 4,937 11.3 -10.1°
